This is the latest recevied weather packets stored in our database for station/object KD4VIF. If no packets are shown the sender has not sent any weather packets the latest 1 day(s).
| Time | Temp. | Humidity | Pressure | Rain* | Wind** | Luminosity | Snow |
|---|---|---|---|---|---|---|---|
| 1836274662 | 20.56° C | 100% | 1016.9 hPa | 0 mm | 0 m/s | - | - |
| 1836274524 | 21.11° C | 100% | 1016.3 hPa | 0 mm | 0 m/s | - | - |
| 1836274521 | 20.56° C | 100% | 1016.9 hPa | 0 mm | 0 m/s | - | - |
| 1836274369 | 20.56° C | 100% | 1016.9 hPa | 0 mm | 0 m/s | - | - |
| 1836274253 | 21.11° C | 100% | 1016.4 hPa | 0 mm | 0 m/s | - | - |
| 1836273923 | 20.56° C | 100% | 1016.8 hPa | 0 mm | 0 m/s | - | - |
| 1778040400 | 19.44° C | 100% | 1014.8 hPa | 0 mm | 0 m/s | - | - |
| 1778040099 | 19.44° C | 100% | 1014.8 hPa | 0 mm | 0 m/s | - | - |
| 1778039799 | 19.44° C | 100% | 1014.7 hPa | 0 mm | 0 m/s | - | - |
| 1778039500 | 19.44° C | 100% | 1014.8 hPa | 0 mm | 1.34 m/s, 227° | - | - |
| 1778038900 | 19.44° C | 100% | 1014.7 hPa | 0 mm | 0 m/s | - | - |
| 1778038599 | 19.44° C | 100% | 1014.6 hPa | 0 mm | 0 m/s | - | - |
| 1778038300 | 19.44° C | 100% | 1014.6 hPa | 0 mm | 0.45 m/s, 277° | - | - |
| 1778037700 | 20° C | 100% | 1014.6 hPa | 0 mm | 0 m/s | - | - |
| 1778036800 | 20° C | 100% | 1014.8 hPa | 0 mm | 0 m/s | - | - |
| 1778036598 | 20° C | 100% | 1014.7 hPa | 0 mm | 0.89 m/s, 239° | - | - |
| 1778036499 | 20° C | 100% | 1014.7 hPa | 0 mm | 0.89 m/s, 239° | - | - |
| 1778036200 | 20° C | 100% | 1014.9 hPa | 0 mm | 0 m/s | - | - |
| 1778035900 | 20° C | 100% | 1015 hPa | 0 mm | 0.45 m/s, 237° | - | - |
| 1778035299 | 20° C | 100% | 1015.1 hPa | 0 mm | 0 m/s | - | - |
| 1778034999 | 20.56° C | 100% | 1015.3 hPa | 0 mm | 0.45 m/s, 209° | - | - |
| 1778034700 | 20° C | 100% | 1015.1 hPa | 0 mm | 0 m/s | - | - |
| 1778033802 | 20° C | 100% | 1014.8 hPa | 0 mm | 0 m/s | - | - |
| 1778033501 | 19.44° C | 100% | 1014.7 hPa | 0 mm | 0 m/s | - | - |
| 1778033199 | 19.44° C | 100% | 1014.6 hPa | 0 mm | 0 m/s | - | - |
* Rain latest hour (hover to see other rain measurements)
** Current wind speed in m/s (hover to see current wind gust speed)